STARLINK-32961, 63122

Orbit data source: Space-Track

STARLINK-32961, 63122 is a payload satellite owned by SpaceX/Seattle (US) in LEO that was launched on Thu, 27 Feb 2025 UTC via an FALCON 9 launch vehicle from the Air Force Eastern Test Range (AFETR). Payload-class satellites include a variety of spacecraft equipped with specific instruments for various scientific and technological missions. These include communications satellites like Starlink; space stations such as the ISS; scientific satellites like the Hubble; Earth observation satellites from companies like Planet Labs, Umbra, and HawkEye 360; GPS; miniature CubeSats for education and research; and military/defense satellites.

Loading next visibility...
Identifier
63122, 2025-039U
Orbit
LEO
Country
Flag of USUS
Related business
Manufacturer
SpaceX/Seattle
Mission
Operational Commercial Communications
Bus & Motor
STARLINK V2M, Unknown motor
Mass
730 kg wet, ~700 kg dry
Launch date (UTC)
2025-02-27 (8 months ago)
Launch vehicle
FALCON 9
Launch site
Air Force Eastern Test Range (AFETR)
Object type
Payload
Rocket body
Debris
Shape & HBR
Box + 2 Pan, 17.7 m
Radar Cross Section
33.884 m², Large (>1 m²)

Expand to show TLE details & history
Last TLE update: 19 hours ago

TLE from 19 hours ago
0 STARLINK-32961
1 63122U 25039U   25300.02487844  .00025268  00000-0  92466-3 0  9993
2 63122  42.9976  47.7241 0001700  57.6390 302.4626 15.27577890 37628
Epoch: 2025-10-27T00:35Z
TLE epoch observation values (Epoch: 2025-10-27T00:35:49.497Z)
Latitude
-0.00001°
Longitude
3.1352°
Altitude
482.205 km
Speed
7.627 km/s
True Right ascension
03h 10m 53s
True Declination
0° 00' 00"
Sunlit
Object was in full shadow at epoch
Visualization orbit readout
Latitude
Unknown
Longitude
Unknown
Altitude
Unknown
Speed
Unknown
Apparent Right ascension
Unknown
Apparent Declination
Unknown
Sunlit
N/A
Visualization observer readout
Local Sidereal Time
15:29:54
Azimuth
Unknown
Elevation
Unknown
Doppler factor
Unknown
Orbital elements
Apogee altitude
486.168 km
Perigee altitude
483.834 km
Semi-major axis
6,863.138 km
Eccentricity
0.00017
Inclination
42.9976°
RAAN
47.7241°
Arg. of periapsis
57.639°
True anomaly
302.44616°
Mean anomaly
302.4626°
Eccentric anomaly
302.45438°
Mean motion
3.81732 °/min
Orbital period
94.31 mins
BSTAR
0.00092466
Loading maneuver chart data...
Computing Atmospheric mass density...
Loading historical data...
Loading historical data...
Loading historical data...
Loading historical data...
Loading historical data...
Loading historical data...
Loading historical data...

Documentation

Showing up to 5 results
|